START_TIME,STEP,MOV.,EG07,t_acc.,EG08,t_acc.,EG09,t_acc.,EB05,t_acc.,EBP05,t_acc.
1979-07-03 00:00:23.690 ,0,0,0.,1.2,0.,1.2,0.,1.2,,0.0,,0.0
1979-07-03 00:00:24.890 ,0,0,0.,1.2,0.,1.2,0.,1.2,,0.0,,0.0
1979-07-03 00:00:26.090 ,0,0,0.,1.2,0.,1.2,0.,1.2,,0.0,,0.0
1979-07-03 00:00:27.290 ,0,0,1.,1.2,1.,1.2,0.,1.2,,0.0,,0.0
1979-07-03 00:00:28.490 ,0,0,1.,1.2,1.,1.2,0.,1.2,,0.0,,0.0
1979-07-03 00:00:29.690 ,0,0,0.,1.2,0.,1.2,0.,1.2,,0.0,,0.0
1979-07-03 00:00:30.890 ,0,0,0.,1.2,0.,1.2,0.,1.2,,0.0,,0.0
1979-07-03 00:00:32.090 ,0,0,0.,1.2,0.,1.2,0.,1.2,,0.0,,0.0
1979-07-03 00:00:33.290 ,0,0,0.,1.2,0.,1.2,0.,1.2,,0.0,,0.0
1979-07-03 00:00:34.490 ,0,0,0.,1.2,0.,1.2,0.,1.2,,0.0,,0.0
1979-07-03 00:00:35.690 ,0,0,0.,1.2,0.,1.2,0.,1.2,,0.0,,0.0
1979-07-03 00:00:36.890 ,0,0,0.,1.2,0.,1.2,0.,1.2,,0.0,,0.0
1979-07-03 00:00:38.090 ,0,0,0.,1.2,0.,1.2,0.,1.2,,0.0,,0.0
1979-07-03 00:00:39.290 ,0,0,0.,1.2,0.,1.2,0.,1.2,,0.0,,0.0
1979-07-03 00:00:40.490 ,0,0,0.,1.2,0.,1.2,0.,1.2,,0.0,,0.0
1979-07-03 00:00:41.690 ,0,0,0.,1.2,0.,1.2,0.,1.2,,0.0,,0.0
1979-07-03 00:00:42.890 ,0,0,0.,1.2,0.,1.2,0.,1.2,,0.0,,0.0
1979-07-03 00:00:44.090 ,0,0,0.,1.2,0.,1.2,0.,1.2,,0.0,,0.0
1979-07-03 00:00:45.290 ,0,0,0.,1.2,0.,1.2,0.,1.2,,0.0,,0.0
1979-07-03 00:00:46.490 ,0,0,0.,1.2,0.,1.2,0.,1.2,,0.0,,0.0
1979-07-03 00:00:47.690 ,1,0,0.,1.2,0.,1.2,0.,1.2,,0.0,,0.0
1979-07-03 00:00:48.890 ,1,0,0.,1.2,0.,1.2,0.,1.2,,0.0,,0.0
1979-07-03 00:00:50.090 ,1,0,0.,1.2,0.,1.2,0.,1.2,,0.0,,0.0
1979-07-03 00:00:51.290 ,1,0,1.,1.2,0.,1.2,0.,1.2,,0.0,,0.0
1979-07-03 00:00:52.490 ,1,0,1.,1.2,0.,1.2,0.,1.2,,0.0,,0.0
1979-07-03 00:00:53.690 ,1,0,1.,1.2,0.,1.2,0.,1.2,,0.0,,0.0
1979-07-03 00:00:54.890 ,1,0,0.,1.2,0.,1.2,0.,1.2,,0.0,,0.0
1979-07-03 00:00:56.090 ,1,0,0.,1.2,0.,1.2,0.,1.2,,0.0,,0.0
1979-07-03 00:00:57.290 ,1,0,0.,1.2,0.,1.2,0.,1.2,,0.0,,0.0
1979-07-03 00:00:58.490 ,1,0,0.,1.2,0.,1.2,0.,1.2,,0.0,,0.0
1979-07-03 00:00:59.690 ,1,0,0.,1.2,0.,1.2,0.,1.2,,0.0,,0.0
1979-07-03 00:01:00.890 ,1,0,0.,1.2,0.,1.2,0.,1.2,,0.0,,0.0
1979-07-03 00:01:02.090 ,1,0,0.,1.2,0.,1.2,0.,1.2,,0.0,,0.0
1979-07-03 00:01:03.290 ,1,0,1.,1.2,0.,1.2,0.,1.2,,0.0,,0.0
1979-07-03 00:01:04.490 ,1,0,0.,1.2,0.,1.2,0.,1.2,,0.0,,0.0
1979-07-03 00:01:05.690 ,1,0,0.,1.2,0.,1.2,0.,1.2,,0.0,,0.0
1979-07-03 00:01:06.890 ,1,0,0.,1.2,0.,1.2,0.,1.2,,0.0,,0.0
1979-07-03 00:01:08.090 ,1,0,0.,1.2,0.,1.2,0.,1.2,,0.0,,0.0
1979-07-03 00:01:09.290 ,1,0,0.,1.2,0.,1.2,0.,1.2,,0.0,,0.0
1979-07-03 00:01:10.490 ,1,0,0.,1.2,0.,1.2,0.,1.2,,0.0,,0.0
1979-07-03 00:01:11.690 ,1,0,1.,1.2,1.,1.2,1.,1.2,,0.0,,0.0
1979-07-03 00:01:12.890 ,1,0,1.,1.2,0.,1.2,0.,1.2,,0.0,,0.0
1979-07-03 00:01:14.090 ,1,0,1.,1.2,0.,1.2,0.,1.2,,0.0,,0.0
1979-07-03 00:01:15.290 ,1,0,0.,1.2,0.,1.2,0.,1.2,,0.0,,0.0
1979-07-03 00:01:16.490 ,1,0,0.,1.2,0.,1.2,0.,1.2,,0.0,,0.0
1979-07-03 00:01:17.690 ,1,0,0.,1.2,0.,1.2,0.,1.2,,0.0,,0.0
1979-07-03 00:01:18.890 ,1,0,0.,1.2,0.,1.2,0.,1.2,,0.0,,0.0
1979-07-03 00:01:20.090 ,1,0,0.,1.2,0.,1.2,0.,1.2,,0.0,,0.0
1979-07-03 00:01:21.290 ,1,0,0.,1.2,0.,1.2,0.,1.2,,0.0,,0.0
1979-07-03 00:01:22.490 ,1,0,0.,1.2,0.,1.2,0.,1.2,,0.0,,0.0
1979-07-03 00:01:23.690 ,1,0,0.,1.2,0.,1.2,0.,1.2,,0.0,,0.0
1979-07-03 00:01:24.890 ,1,0,0.,1.2,0.,1.2,0.,1.2,,0.0,,0.0
1979-07-03 00:01:26.090 ,1,0,0.,1.2,0.,1.2,0.,1.2,,0.0,,0.0
1979-07-03 00:01:27.290 ,1,0,0.,1.2,0.,1.2,0.,1.2,,0.0,,0.0
1979-07-03 00:01:28.490 ,1,0,0.,1.2,0.,1.2,0.,1.2,,0.0,,0.0
1979-07-03 00:01:29.690 ,1,0,0.,1.2,0.,1.2,0.,1.2,,0.0,,0.0
1979-07-03 00:01:30.890 ,1,0,0.,1.2,0.,1.2,0.,1.2,,0.0,,0.0
1979-07-03 00:01:32.090 ,1,0,0.,1.2,0.,1.2,0.,1.2,,0.0,,0.0
1979-07-03 00:01:33.290 ,1,0,0.,1.2,0.,1.2,0.,1.2,,0.0,,0.0
1979-07-03 00:01:34.490 ,1,0,1.,1.2,0.,1.2,0.,1.2,,0.0,,0.0
1979-07-03 00:01:35.690 ,2,0,0.,1.2,0.,1.2,0.,1.2,,0.0,,0.0
1979-07-03 00:01:36.890 ,2,0,0.,1.2,0.,1.2,0.,1.2,,0.0,,0.0
1979-07-03 00:01:38.090 ,2,0,0.,1.2,0.,1.2,0.,1.2,,0.0,,0.0
1979-07-03 00:01:39.290 ,2,0,0.,1.2,0.,1.2,0.,1.2,,0.0,,0.0
1979-07-03 00:01:40.490 ,2,0,1.,1.2,1.,1.2,1.,1.2,,0.0,,0.0
1979-07-03 00:01:41.690 ,2,0,0.,1.2,0.,1.2,0.,1.2,,0.0,,0.0
1979-07-03 00:01:42.890 ,2,0,0.,1.2,0.,1.2,0.,1.2,,0.0,,0.0
1979-07-03 00:01:44.090 ,2,0,0.,1.2,0.,1.2,0.,1.2,,0.0,,0.0
1979-07-03 00:01:45.290 ,2,0,1.,1.2,0.,1.2,0.,1.2,,0.0,,0.0
1979-07-03 00:01:46.490 ,2,0,0.,1.2,0.,1.2,0.,1.2,,0.0,,0.0
1979-07-03 00:01:47.690 ,2,0,1.,1.2,0.,1.2,0.,1.2,,0.0,,0.0
1979-07-03 00:01:48.890 ,2,0,2.,1.2,0.,1.2,0.,1.2,,0.0,,0.0
1979-07-03 00:01:50.090 ,2,0,0.,1.2,0.,1.2,0.,1.2,,0.0,,0.0
1979-07-03 00:01:51.290 ,2,0,0.,1.2,0.,1.2,0.,1.2,,0.0,,0.0
1979-07-03 00:01:52.490 ,2,0,0.,1.2,0.,1.2,0.,1.2,,0.0,,0.0
1979-07-03 00:01:53.690 ,2,0,0.,1.2,0.,1.2,0.,1.2,,0.0,,0.0
1979-07-03 00:01:54.890 ,2,0,1.,1.2,1.,1.2,0.,1.2,,0.0,,0.0
1979-07-03 00:01:56.090 ,2,0,2.,1.2,1.,1.2,0.,1.2,,0.0,,0.0
1979-07-03 00:01:57.290 ,2,0,0.,1.2,0.,1.2,0.,1.2,,0.0,,0.0
1979-07-03 00:01:58.490 ,2,0,0.,1.2,0.,1.2,0.,1.2,,0.0,,0.0
1979-07-03 00:01:59.690 ,2,0,0.,1.2,0.,1.2,0.,1.2,,0.0,,0.0
1979-07-03 00:02:00.890 ,2,0,0.,1.2,0.,1.2,0.,1.2,,0.0,,0.0
1979-07-03 00:02:02.090 ,2,0,0.,1.2,0.,1.2,0.,1.2,,0.0,,0.0
1979-07-03 00:02:03.290 ,2,0,1.,1.2,0.,1.2,0.,1.2,,0.0,,0.0
1979-07-03 00:02:04.490 ,2,0,0.,1.2,0.,1.2,0.,1.2,,0.0,,0.0
1979-07-03 00:02:05.690 ,2,0,0.,1.2,0.,1.2,0.,1.2,,0.0,,0.0
1979-07-03 00:02:06.890 ,2,0,0.,1.2,0.,1.2,0.,1.2,,0.0,,0.0
1979-07-03 00:02:08.090 ,2,0,0.,1.2,0.,1.2,0.,1.2,,0.0,,0.0
1979-07-03 00:02:09.290 ,2,0,0.,1.2,0.,1.2,0.,1.2,,0.0,,0.0
1979-07-03 00:02:10.490 ,2,0,0.,1.2,0.,1.2,0.,1.2,,0.0,,0.0
1979-07-03 00:02:11.690 ,2,0,1.,1.2,1.,1.2,1.,1.2,,0.0,,0.0
1979-07-03 00:02:12.890 ,2,0,0.,1.2,0.,1.2,0.,1.2,,0.0,,0.0
1979-07-03 00:02:14.090 ,2,0,0.,1.2,0.,1.2,0.,1.2,,0.0,,0.0
1979-07-03 00:02:15.290 ,2,0,0.,1.2,0.,1.2,0.,1.2,,0.0,,0.0
1979-07-03 00:02:16.490 ,2,0,0.,1.2,0.,1.2,0.,1.2,,0.0,,0.0
1979-07-03 00:02:17.690 ,2,0,0.,1.2,0.,1.2,0.,1.2,,0.0,,0.0
1979-07-03 00:02:18.890 ,2,0,0.,1.2,0.,1.2,0.,1.2,,0.0,,0.0
1979-07-03 00:02:20.090 ,2,0,0.,1.2,0.,1.2,0.,1.2,,0.0,,0.0
1979-07-03 00:02:21.290 ,2,0,1.,1.2,0.,1.2,0.,1.2,,0.0,,0.0
1979-07-03 00:02:22.490 ,2,0,0.,1.2,0.,1.2,0.,1.2,,0.0,,0.0
1979-07-03 00:02:23.690 ,3,0,0.,1.2,0.,1.2,0.,1.2,,0.0,,0.0
1979-07-03 00:02:24.890 ,3,0,0.,1.2,0.,1.2,0.,1.2,,0.0,,0.0
1979-07-03 00:02:26.090 ,3,0,1.,1.2,1.,1.2,0.,1.2,,0.0,,0.0
1979-07-03 00:02:27.290 ,3,0,0.,1.2,0.,1.2,0.,1.2,,0.0,,0.0
1979-07-03 00:02:28.490 ,3,0,0.,1.2,0.,1.2,0.,1.2,,0.0,,0.0
1979-07-03 00:02:29.690 ,3,0,0.,1.2,0.,1.2,0.,1.2,,0.0,,0.0
1979-07-03 00:02:30.890 ,3,0,0.,1.2,0.,1.2,0.,1.2,,0.0,,0.0
1979-07-03 00:02:32.090 ,3,0,0.,1.2,0.,1.2,0.,1.2,,0.0,,0.0
1979-07-03 00:02:33.290 ,3,0,0.,1.2,0.,1.2,0.,1.2,,0.0,,0.0
1979-07-03 00:02:34.490 ,3,0,0.,1.2,0.,1.2,0.,1.2,,0.0,,0.0
1979-07-03 00:02:35.690 ,3,0,0.,1.2,0.,1.2,0.,1.2,,0.0,,0.0
1979-07-03 00:02:36.890 ,3,0,0.,1.2,0.,1.2,0.,1.2,,0.0,,0.0
1979-07-03 00:02:38.090 ,3,0,0.,1.2,0.,1.2,0.,1.2,,0.0,,0.0
1979-07-03 00:02:39.290 ,3,0,0.,1.2,0.,1.2,0.,1.2,,0.0,,0.0
1979-07-03 00:02:40.490 ,3,0,0.,1.2,0.,1.2,0.,1.2,,0.0,,0.0
1979-07-03 00:02:41.690 ,3,0,0.,1.2,0.,1.2,0.,1.2,,0.0,,0.0
1979-07-03 00:02:42.890 ,3,0,0.,1.2,0.,1.2,0.,1.2,,0.0,,0.0
1979-07-03 00:02:44.090 ,3,0,0.,1.2,0.,1.2,0.,1.2,,0.0,,0.0
1979-07-03 00:02:45.290 ,3,0,1.,1.2,0.,1.2,0.,1.2,,0.0,,0.0
1979-07-03 00:02:46.490 ,3,0,0.,1.2,0.,1.2,0.,1.2,,0.0,,0.0
1979-07-03 00:02:47.690 ,3,0,0.,1.2,0.,1.2,0.,1.2,,0.0,,0.0
1979-07-03 00:02:48.890 ,3,0,1.,1.2,1.,1.2,0.,1.2,,0.0,,0.0
1979-07-03 00:02:50.090 ,3,0,2.,1.2,1.,1.2,0.,1.2,,0.0,,0.0
1979-07-03 00:02:51.290 ,3,0,0.,1.2,0.,1.2,0.,1.2,,0.0,,0.0
1979-07-03 00:02:52.490 ,3,0,0.,1.2,0.,1.2,0.,1.2,,0.0,,0.0
1979-07-03 00:02:53.690 ,3,0,0.,1.2,0.,1.2,0.,1.2,,0.0,,0.0
1979-07-03 00:02:54.890 ,3,0,0.,1.2,0.,1.2,0.,1.2,,0.0,,0.0
1979-07-03 00:02:56.090 ,3,0,0.,1.2,0.,1.2,0.,1.2,,0.0,,0.0
1979-07-03 00:02:57.290 ,3,0,1.,1.2,1.,1.2,0.,1.2,,0.0,,0.0
1979-07-03 00:02:58.490 ,3,0,0.,1.2,0.,1.2,0.,1.2,,0.0,,0.0
1979-07-03 00:02:59.690 ,3,0,0.,1.2,0.,1.2,0.,1.2,,0.0,,0.0
1979-07-03 00:03:00.890 ,3,0,0.,1.2,0.,1.2,0.,1.2,,0.0,,0.0
1979-07-03 00:03:02.090 ,3,0,0.,1.2,0.,1.2,0.,1.2,,0.0,,0.0
1979-07-03 00:03:03.290 ,3,0,0.,1.2,0.,1.2,0.,1.2,,0.0,,0.0
1979-07-03 00:03:04.490 ,3,0,0.,1.2,0.,1.2,0.,1.2,,0.0,,0.0
1979-07-03 00:03:05.690 ,3,0,0.,1.2,0.,1.2,0.,1.2,,0.0,,0.0
1979-07-03 00:03:06.890 ,3,0,0.,1.2,0.,1.2,0.,1.2,,0.0,,0.0
1979-07-03 00:03:08.090 ,3,0,0.,1.2,0.,1.2,0.,1.2,,0.0,,0.0
1979-07-03 00:03:09.290 ,3,0,0.,1.2,0.,1.2,0.,1.2,,0.0,,0.0
1979-07-03 00:03:10.490 ,3,0,0.,1.2,0.,1.2,0.,1.2,,0.0,,0.0
1979-07-03 00:03:11.690 ,4,0,1.,1.2,0.,1.2,0.,1.2,,0.0,,0.0
1979-07-03 00:03:12.890 ,4,0,0.,1.2,0.,1.2,0.,1.2,,0.0,,0.0
1979-07-03 00:03:14.090 ,4,0,0.,1.2,0.,1.2,0.,1.2,,0.0,,0.0
1979-07-03 00:03:15.290 ,4,0,0.,1.2,0.,1.2,0.,1.2,,0.0,,0.0
1979-07-03 00:03:16.490 ,4,0,0.,1.2,0.,1.2,0.,1.2,,0.0,,0.0
1979-07-03 00:03:17.690 ,4,0,0.,1.2,0.,1.2,0.,1.2,,0.0,,0.0
1979-07-03 00:03:18.890 ,4,0,0.,1.2,0.,1.2,0.,1.2,,0.0,,0.0
1979-07-03 00:03:20.090 ,4,0,0.,1.2,0.,1.2,0.,1.2,,0.0,,0.0
1979-07-03 00:03:21.290 ,4,0,1.,1.2,0.,1.2,0.,1.2,,0.0,,0.0
1979-07-03 00:03:22.490 ,4,0,0.,1.2,0.,1.2,0.,1.2,,0.0,,0.0
1979-07-03 00:03:23.690 ,4,0,0.,1.2,0.,1.2,0.,1.2,,0.0,,0.0
1979-07-03 00:03:24.890 ,4,0,0.,1.2,0.,1.2,0.,1.2,,0.0,,0.0
1979-07-03 00:03:26.090 ,4,0,0.,1.2,0.,1.2,0.,1.2,,0.0,,0.0
1979-07-03 00:03:27.290 ,4,0,0.,1.2,0.,1.2,0.,1.2,,0.0,,0.0
1979-07-03 00:03:28.490 ,4,0,0.,1.2,0.,1.2,0.,1.2,,0.0,,0.0
1979-07-03 00:03:29.690 ,4,0,0.,1.2,0.,1.2,0.,1.2,,0.0,,0.0
1979-07-03 00:03:30.890 ,4,0,0.,1.2,0.,1.2,0.,1.2,,0.0,,0.0
1979-07-03 00:03:32.090 ,4,0,0.,1.2,0.,1.2,0.,1.2,,0.0,,0.0
1979-07-03 00:03:33.290 ,4,0,0.,1.2,0.,1.2,0.,1.2,,0.0,,0.0
1979-07-03 00:03:34.490 ,4,0,0.,1.2,0.,1.2,0.,1.2,,0.0,,0.0
1979-07-03 00:03:35.690 ,4,0,0.,1.2,0.,1.2,0.,1.2,,0.0,,0.0
1979-07-03 00:03:36.890 ,4,0,0.,1.2,0.,1.2,0.,1.2,,0.0,,0.0
1979-07-03 00:03:38.090 ,4,0,0.,1.2,0.,1.2,0.,1.2,,0.0,,0.0
1979-07-03 00:03:39.290 ,4,0,0.,1.2,0.,1.2,0.,1.2,,0.0,,0.0
1979-07-03 00:03:40.490 ,4,0,1.,1.2,1.,1.2,0.,1.2,,0.0,,0.0
1979-07-03 00:03:41.690 ,4,0,0.,1.2,0.,1.2,0.,1.2,,0.0,,0.0
1979-07-03 00:03:42.890 ,4,0,2.,1.2,1.,1.2,0.,1.2,,0.0,,0.0
1979-07-03 00:03:44.090 ,4,0,0.,1.2,0.,1.2,0.,1.2,,0.0,,0.0
1979-07-03 00:03:45.290 ,4,0,0.,1.2,0.,1.2,0.,1.2,,0.0,,0.0
1979-07-03 00:03:46.490 ,4,0,1.,1.2,0.,1.2,0.,1.2,,0.0,,0.0
1979-07-03 00:03:47.690 ,4,0,0.,1.2,0.,1.2,0.,1.2,,0.0,,0.0
1979-07-03 00:03:48.890 ,4,0,0.,1.2,0.,1.2,0.,1.2,,0.0,,0.0
1979-07-03 00:03:50.090 ,4,0,0.,1.2,0.,1.2,0.,1.2,,0.0,,0.0
1979-07-03 00:03:51.290 ,4,0,0.,1.2,0.,1.2,0.,1.2,,0.0,,0.0
1979-07-03 00:03:52.490 ,4,0,0.,1.2,0.,1.2,0.,1.2,,0.0,,0.0
1979-07-03 00:03:53.690 ,4,0,0.,1.2,0.,1.2,0.,1.2,,0.0,,0.0
1979-07-03 00:03:54.890 ,4,0,0.,1.2,0.,1.2,0.,1.2,,0.0,,0.0
1979-07-03 00:03:56.090 ,4,0,1.,1.2,0.,1.2,0.,1.2,,0.0,,0.0
1979-07-03 00:03:57.290 ,4,0,0.,1.2,0.,1.2,0.,1.2,,0.0,,0.0
1979-07-03 00:03:58.490 ,4,0,0.,1.2,0.,1.2,0.,1.2,,0.0,,0.0
1979-07-03 00:03:59.690 ,5,0,1.,1.2,0.,1.2,0.,1.2,,0.0,,0.0
1979-07-03 00:04:00.890 ,5,0,0.,1.2,0.,1.2,0.,1.2,,0.0,,0.0
1979-07-03 00:04:02.090 ,5,0,1.,1.2,1.,1.2,1.,1.2,,0.0,,0.0
1979-07-03 00:04:03.290 ,5,0,0.,1.2,0.,1.2,0.,1.2,,0.0,,0.0
1979-07-03 00:04:04.490 ,5,0,1.,1.2,1.,1.2,0.,1.2,,0.0,,0.0
1979-07-03 00:04:05.690 ,5,0,0.,1.2,0.,1.2,0.,1.2,,0.0,,0.0
1979-07-03 00:04:06.890 ,5,0,0.,1.2,0.,1.2,0.,1.2,,0.0,,0.0
1979-07-03 00:04:08.090 ,5,0,0.,1.2,0.,1.2,0.,1.2,,0.0,,0.0
1979-07-03 00:04:09.290 ,5,0,0.,1.2,0.,1.2,0.,1.2,,0.0,,0.0
1979-07-03 00:04:10.490 ,5,0,1.,1.2,1.,1.2,0.,1.2,,0.0,,0.0
1979-07-03 00:04:11.690 ,5,0,0.,1.2,0.,1.2,0.,1.2,,0.0,,0.0
1979-07-03 00:04:12.890 ,5,0,0.,1.2,0.,1.2,0.,1.2,,0.0,,0.0
1979-07-03 00:04:14.090 ,5,0,0.,1.2,0.,1.2,0.,1.2,,0.0,,0.0
1979-07-03 00:04:15.290 ,5,0,0.,1.2,0.,1.2,0.,1.2,,0.0,,0.0
1979-07-03 00:04:16.490 ,5,0,0.,1.2,0.,1.2,0.,1.2,,0.0,,0.0
1979-07-03 00:04:17.690 ,5,0,0.,1.2,0.,1.2,0.,1.2,,0.0,,0.0
1979-07-03 00:04:18.890 ,5,0,0.,1.2,0.,1.2,0.,1.2,,0.0,,0.0
1979-07-03 00:04:20.090 ,5,0,0.,1.2,0.,1.2,0.,1.2,,0.0,,0.0
1979-07-03 00:04:21.290 ,5,0,0.,1.2,0.,1.2,0.,1.2,,0.0,,0.0
1979-07-03 00:04:22.490 ,5,0,0.,1.2,0.,1.2,0.,1.2,,0.0,,0.0
1979-07-03 00:04:23.690 ,5,0,0.,1.2,0.,1.2,0.,1.2,,0.0,,0.0
1979-07-03 00:04:24.890 ,5,0,0.,1.2,0.,1.2,0.,1.2,,0.0,,0.0
1979-07-03 00:04:26.090 ,5,0,0.,1.2,0.,1.2,0.,1.2,,0.0,,0.0
1979-07-03 00:04:27.290 ,5,0,0.,1.2,0.,1.2,0.,1.2,,0.0,,0.0
1979-07-03 00:04:28.490 ,5,0,0.,1.2,0.,1.2,0.,1.2,,0.0,,0.0
1979-07-03 00:04:29.690 ,5,0,0.,1.2,0.,1.2,0.,1.2,,0.0,,0.0
1979-07-03 00:04:30.890 ,5,0,0.,1.2,0.,1.2,0.,1.2,,0.0,,0.0
1979-07-03 00:04:32.090 ,5,0,1.,1.2,1.,1.2,1.,1.2,,0.0,,0.0
1979-07-03 00:04:33.290 ,5,0,0.,1.2,0.,1.2,0.,1.2,,0.0,,0.0
1979-07-03 00:04:34.490 ,5,0,0.,1.2,0.,1.2,0.,1.2,,0.0,,0.0
1979-07-03 00:04:35.690 ,5,0,0.,1.2,0.,1.2,0.,1.2,,0.0,,0.0
1979-07-03 00:04:36.890 ,5,0,1.,1.2,1.,1.2,0.,1.2,,0.0,,0.0
1979-07-03 00:04:38.090 ,5,0,1.,1.2,0.,1.2,0.,1.2,,0.0,,0.0
1979-07-03 00:04:39.290 ,5,0,0.,1.2,0.,1.2,0.,1.2,,0.0,,0.0
1979-07-03 00:04:40.490 ,5,0,0.,1.2,0.,1.2,0.,1.2,,0.0,,0.0
1979-07-03 00:04:41.690 ,5,0,0.,1.2,0.,1.2,0.,1.2,,0.0,,0.0
1979-07-03 00:04:42.890 ,5,0,0.,1.2,0.,1.2,0.,1.2,,0.0,,0.0
1979-07-03 00:04:44.090 ,5,0,0.,1.2,0.,1.2,0.,1.2,,0.0,,0.0
1979-07-03 00:04:45.290 ,5,0,0.,1.2,0.,1.2,0.,1.2,,0.0,,0.0
1979-07-03 00:04:46.490 ,5,0,0.,1.2,0.,1.2,0.,1.2,,0.0,,0.0
1979-07-03 00:04:47.690 ,6,0,1.,1.2,0.,1.2,0.,1.2,,0.0,,0.0
1979-07-03 00:04:48.890 ,6,0,1.,1.2,0.,1.2,0.,1.2,,0.0,,0.0
1979-07-03 00:04:50.090 ,6,0,0.,1.2,0.,1.2,0.,1.2,,0.0,,0.0
1979-07-03 00:04:51.290 ,6,0,0.,1.2,0.,1.2,0.,1.2,,0.0,,0.0
1979-07-03 00:04:52.490 ,6,0,0.,1.2,0.,1.2,0.,1.2,,0.0,,0.0
1979-07-03 00:04:53.690 ,6,0,1.,1.2,0.,1.2,0.,1.2,,0.0,,0.0
1979-07-03 00:04:54.890 ,6,0,0.,1.2,0.,1.2,0.,1.2,,0.0,,0.0
1979-07-03 00:04:56.090 ,6,0,0.,1.2,0.,1.2,0.,1.2,,0.0,,0.0
1979-07-03 00:04:57.290 ,6,0,1.,1.2,1.,1.2,1.,1.2,,0.0,,0.0
1979-07-03 00:04:58.490 ,6,0,0.,1.2,0.,1.2,0.,1.2,,0.0,,0.0
1979-07-03 00:04:59.690 ,6,0,0.,1.2,0.,1.2,0.,1.2,,0.0,,0.0
1979-07-03 00:05:00.890 ,6,0,2.,1.2,1.,1.2,0.,1.2,,0.0,,0.0
1979-07-03 00:05:02.090 ,6,0,0.,1.2,0.,1.2,0.,1.2,,0.0,,0.0
1979-07-03 00:05:03.290 ,6,0,1.,1.2,0.,1.2,0.,1.2,,0.0,,0.0
1979-07-03 00:05:04.490 ,6,0,1.,1.2,0.,1.2,0.,1.2,,0.0,,0.0
1979-07-03 00:05:05.690 ,6,0,0.,1.2,0.,1.2,0.,1.2,,0.0,,0.0
1979-07-03 00:05:06.890 ,6,0,0.,1.2,0.,1.2,0.,1.2,,0.0,,0.0
1979-07-03 00:05:08.090 ,6,0,0.,1.2,0.,1.2,0.,1.2,,0.0,,0.0
1979-07-03 00:05:09.290 ,6,0,0.,1.2,0.,1.2,0.,1.2,,0.0,,0.0
1979-07-03 00:05:10.490 ,6,0,0.,1.2,0.,1.2,0.,1.2,,0.0,,0.0
1979-07-03 00:05:11.690 ,6,0,1.,1.2,1.,1.2,1.,1.2,,0.0,,0.0
1979-07-03 00:05:12.890 ,6,0,0.,1.2,0.,1.2,0.,1.2,,0.0,,0.0
1979-07-03 00:05:14.090 ,6,0,1.,1.2,1.,1.2,0.,1.2,,0.0,,0.0
1979-07-03 00:05:15.290 ,6,0,1.,1.2,1.,1.2,0.,1.2,,0.0,,0.0
1979-07-03 00:05:16.490 ,6,0,0.,1.2,0.,1.2,0.,1.2,,0.0,,0.0
1979-07-03 00:05:17.690 ,6,0,0.,1.2,0.,1.2,0.,1.2,,0.0,,0.0
1979-07-03 00:05:18.890 ,6,0,0.,1.2,0.,1.2,0.,1.2,,0.0,,0.0
1979-07-03 00:05:20.090 ,6,0,0.,1.2,0.,1.2,0.,1.2,,0.0,,0.0
1979-07-03 00:05:21.290 ,6,0,0.,1.2,0.,1.2,0.,1.2,,0.0,,0.0
1979-07-03 00:05:22.490 ,6,0,0.,1.2,0.,1.2,0.,1.2,,0.0,,0.0
1979-07-03 00:05:23.690 ,6,0,0.,1.2,0.,1.2,0.,1.2,,0.0,,0.0
1979-07-03 00:05:24.890 ,6,0,0.,1.2,0.,1.2,0.,1.2,,0.0,,0.0
1979-07-03 00:05:26.090 ,6,0,0.,1.2,0.,1.2,0.,1.2,,0.0,,0.0
1979-07-03 00:05:27.290 ,6,0,0.,1.2,0.,1.2,0.,1.2,,0.0,,0.0
1979-07-03 00:05:28.490 ,6,0,0.,1.2,0.,1.2,0.,1.2,,0.0,,0.0
1979-07-03 00:05:29.690 ,6,0,0.,1.2,0.,1.2,0.,1.2,,0.0,,0.0
1979-07-03 00:05:30.890 ,6,0,0.,1.2,0.,1.2,0.,1.2,,0.0,,0.0
1979-07-03 00:05:32.090 ,6,0,0.,1.2,0.,1.2,0.,1.2,,0.0,,0.0
1979-07-03 00:05:33.290 ,6,0,0.,1.2,0.,1.2,0.,1.2,,0.0,,0.0
1979-07-03 00:05:34.490 ,6,0,0.,1.2,0.,1.2,0.,1.2,,0.0,,0.0
1979-07-03 00:05:35.690 ,7,0,2.,1.2,1.,1.2,1.,1.2,,0.0,,0.0
1979-07-03 00:05:36.890 ,7,0,0.,1.2,0.,1.2,0.,1.2,,0.0,,0.0
1979-07-03 00:05:38.090 ,7,0,0.,1.2,0.,1.2,0.,1.2,,0.0,,0.0
1979-07-03 00:05:39.290 ,7,0,1.,1.2,0.,1.2,0.,1.2,,0.0,,0.0
1979-07-03 00:05:40.490 ,7,0,0.,1.2,0.,1.2,0.,1.2,,0.0,,0.0
1979-07-03 00:05:41.690 ,7,0,0.,1.2,0.,1.2,0.,1.2,,0.0,,0.0
1979-07-03 00:05:42.890 ,7,0,0.,1.2,0.,1.2,0.,1.2,,0.0,,0.0
1979-07-03 00:05:44.090 ,7,0,0.,1.2,0.,1.2,0.,1.2,,0.0,,0.0
1979-07-03 00:05:45.290 ,7,0,0.,1.2,0.,1.2,0.,1.2,,0.0,,0.0
1979-07-03 00:05:46.490 ,7,0,0.,1.2,0.,1.2,0.,1.2,,0.0,,0.0
1979-07-03 00:05:47.690 ,7,0,0.,1.2,0.,1.2,0.,1.2,,0.0,,0.0
1979-07-03 00:05:48.890 ,7,0,0.,1.2,0.,1.2,0.,1.2,,0.0,,0.0
1979-07-03 00:05:50.090 ,7,0,1.,1.2,1.,1.2,1.,1.2,,0.0,,0.0
1979-07-03 00:05:51.290 ,7,0,0.,1.2,0.,1.2,0.,1.2,,0.0,,0.0
1979-07-03 00:05:52.490 ,7,0,0.,1.2,0.,1.2,0.,1.2,,0.0,,0.0
1979-07-03 00:05:53.690 ,7,0,0.,1.2,0.,1.2,0.,1.2,,0.0,,0.0
1979-07-03 00:05:54.890 ,7,0,0.,1.2,0.,1.2,0.,1.2,,0.0,,0.0
1979-07-03 00:05:56.090 ,7,0,0.,1.2,0.,1.2,0.,1.2,,0.0,,0.0
1979-07-03 00:05:57.290 ,7,0,0.,1.2,0.,1.2,0.,1.2,,0.0,,0.0
1979-07-03 00:05:58.490 ,7,0,0.,1.2,0.,1.2,0.,1.2,,0.0,,0.0
1979-07-03 00:05:59.690 ,7,0,0.,1.2,0.,1.2,0.,1.2,,0.0,,0.0
1979-07-03 00:06:00.890 ,7,0,0.,1.2,0.,1.2,0.,1.2,,0.0,,0.0
1979-07-03 00:06:02.090 ,7,0,2.,1.2,0.,1.2,0.,1.2,,0.0,,0.0
1979-07-03 00:06:03.290 ,7,0,1.,1.2,1.,1.2,0.,1.2,,0.0,,0.0
1979-07-03 00:06:04.490 ,7,0,0.,1.2,0.,1.2,0.,1.2,,0.0,,0.0
1979-07-03 00:06:05.690 ,7,0,1.,1.2,0.,1.2,0.,1.2,,0.0,,0.0
1979-07-03 00:06:06.890 ,7,0,0.,1.2,0.,1.2,0.,1.2,,0.0,,0.0
1979-07-03 00:06:08.090 ,7,0,0.,1.2,0.,1.2,0.,1.2,,0.0,,0.0
1979-07-03 00:06:09.290 ,7,0,0.,1.2,0.,1.2,0.,1.2,,0.0,,0.0
1979-07-03 00:06:10.490 ,7,0,0.,1.2,0.,1.2,0.,1.2,,0.0,,0.0
1979-07-03 00:06:11.690 ,7,0,0.,1.2,0.,1.2,0.,1.2,,0.0,,0.0
1979-07-03 00:06:12.890 ,7,0,0.,1.2,0.,1.2,0.,1.2,,0.0,,0.0
1979-07-03 00:06:14.090 ,7,0,0.,1.2,0.,1.2,0.,1.2,,0.0,,0.0
1979-07-03 00:06:15.290 ,7,0,0.,1.2,0.,1.2,0.,1.2,,0.0,,0.0
1979-07-03 00:06:16.490 ,7,0,1.,1.2,0.,1.2,0.,1.2,,0.0,,0.0
1979-07-03 00:06:17.690 ,7,0,0.,1.2,0.,1.2,0.,1.2,,0.0,,0.0
1979-07-03 00:06:18.890 ,7,0,0.,1.2,0.,1.2,0.,1.2,,0.0,,0.0
1979-07-03 00:06:20.090 ,7,0,0.,1.2,0.,1.2,0.,1.2,,0.0,,0.0
1979-07-03 00:06:21.290 ,7,0,0.,1.2,0.,1.2,0.,1.2,,0.0,,0.0
1979-07-03 00:06:22.490 ,7,0,2.,1.2,1.,1.2,0.,1.2,,0.0,,0.0
1979-07-03 00:06:23.690 ,7,0,1.,1.2,0.,1.2,0.,1.2,,0.0,,0.0
1979-07-03 00:06:24.890 ,7,0,0.,1.2,0.,1.2,0.,1.2,,0.0,,0.0
1979-07-03 00:06:26.090 ,7,0,0.,1.2,0.,1.2,0.,1.2,,0.0,,0.0
1979-07-03 00:06:27.290 ,7,0,0.,1.2,0.,1.2,0.,1.2,,0.0,,0.0
1979-07-03 00:06:28.490 ,7,0,1.,1.2,1.,1.2,0.,1.2,,0.0,,0.0
1979-07-03 00:06:29.690 ,7,0,0.,1.2,0.,1.2,0.,1.2,,0.0,,0.0
1979-07-03 00:06:30.890 ,7,0,0.,1.2,0.,1.2,0.,1.2,,0.0,,0.0
1979-07-03 00:06:32.090 ,7,0,0.,1.2,0.,1.2,0.,1.2,,0.0,,0.0
1979-07-03 00:06:33.290 ,7,0,0.,1.2,0.,1.2,0.,1.2,,0.0,,0.0
1979-07-03 00:06:34.490 ,7,0,0.,1.2,0.,1.2,0.,1.2,,0.0,,0.0
1979-07-03 00:06:35.690 ,7,0,0.,1.2,0.,1.2,0.,1.2,,0.0,,0.0
1979-07-03 00:06:36.890 ,7,0,0.,1.2,0.,1.2,0.,1.2,,0.0,,0.0
1979-07-03 00:06:38.090 ,7,0,1.,1.2,0.,1.2,0.,1.2,,0.0,,0.0
1979-07-03 00:06:39.290 ,7,0,0.,1.2,0.,1.2,0.,1.2,,0.0,,0.0
1979-07-03 00:06:40.490 ,7,0,0.,1.2,0.,1.2,0.,1.2,,0.0,,0.0
1979-07-03 00:06:41.690 ,7,0,1.,1.2,0.,1.2,0.,1.2,,0.0,,0.0
1979-07-03 00:06:42.890 ,7,0,0.,1.2,0.,1.2,0.,1.2,,0.0,,0.0
1979-07-03 00:06:44.090 ,7,0,0.,1.2,0.,1.2,0.,1.2,,0.0,,0.0
1979-07-03 00:06:45.290 ,7,0,0.,1.2,0.,1.2,0.,1.2,,0.0,,0.0
1979-07-03 00:06:46.490 ,7,0,0.,1.2,0.,1.2,0.,1.2,,0.0,,0.0
1979-07-03 00:06:47.690 ,7,0,0.,1.2,0.,1.2,0.,1.2,,0.0,,0.0
1979-07-03 00:06:48.890 ,7,0,0.,1.2,0.,1.2,0.,1.2,,0.0,,0.0
1979-07-03 00:06:50.090 ,7,0,0.,1.2,0.,1.2,0.,1.2,,0.0,,0.0
1979-07-03 00:06:51.290 ,7,0,0.,1.2,0.,1.2,0.,1.2,,0.0,,0.0
1979-07-03 00:06:52.490 ,7,0,2.,1.2,2.,1.2,1.,1.2,,0.0,,0.0
1979-07-03 00:06:53.690 ,7,0,0.,1.2,0.,1.2,0.,1.2,,0.0,,0.0
1979-07-03 00:06:54.890 ,7,0,0.,1.2,0.,1.2,0.,1.2,,0.0,,0.0
1979-07-03 00:06:56.090 ,7,0,0.,1.2,0.,1.2,0.,1.2,,0.0,,0.0
1979-07-03 00:06:57.290 ,7,0,0.,1.2,0.,1.2,0.,1.2,,0.0,,0.0
1979-07-03 00:06:58.490 ,7,0,0.,1.2,0.,1.2,0.,1.2,,0.0,,0.0
1979-07-03 00:06:59.690 ,7,0,0.,1.2,0.,1.2,0.,1.2,,0.0,,0.0
1979-07-03 00:07:00.890 ,7,0,2.,1.2,1.,1.2,1.,1.2,,0.0,,0.0
1979-07-03 00:07:02.090 ,7,0,0.,1.2,0.,1.2,0.,1.2,,0.0,,0.0
1979-07-03 00:07:03.290 ,7,0,0.,1.2,0.,1.2,0.,1.2,,0.0,,0.0
1979-07-03 00:07:04.490 ,7,0,1.,1.2,0.,1.2,0.,1.2,,0.0,,0.0
1979-07-03 00:07:05.690 ,7,0,0.,1.2,0.,1.2,0.,1.2,,0.0,,0.0
1979-07-03 00:07:06.890 ,7,0,1.,1.2,0.,1.2,0.,1.2,,0.0,,0.0
1979-07-03 00:07:08.090 ,7,0,0.,1.2,0.,1.2,0.,1.2,,0.0,,0.0
1979-07-03 00:07:09.290 ,7,0,0.,1.2,0.,1.2,0.,1.2,,0.0,,0.0
1979-07-03 00:07:10.490 ,7,0,0.,1.2,0.,1.2,0.,1.2,,0.0,,0.0
1979-07-03 00:07:11.690 ,6,0,0.,1.2,0.,1.2,0.,1.2,,0.0,,0.0
1979-07-03 00:07:12.890 ,6,0,0.,1.2,0.,1.2,0.,1.2,,0.0,,0.0
1979-07-03 00:07:14.090 ,6,0,0.,1.2,0.,1.2,0.,1.2,,0.0,,0.0
1979-07-03 00:07:15.290 ,6,0,0.,1.2,0.,1.2,0.,1.2,,0.0,,0.0
1979-07-03 00:07:16.490 ,6,0,0.,1.2,0.,1.2,0.,1.2,,0.0,,0.0
1979-07-03 00:07:17.690 ,6,0,0.,1.2,0.,1.2,0.,1.2,,0.0,,0.0
1979-07-03 00:07:18.890 ,6,0,1.,1.2,0.,1.2,0.,1.2,,0.0,,0.0
1979-07-03 00:07:20.090 ,6,0,0.,1.2,0.,1.2,0.,1.2,,0.0,,0.0
1979-07-03 00:07:21.290 ,6,0,0.,1.2,0.,1.2,0.,1.2,,0.0,,0.0
1979-07-03 00:07:22.490 ,6,0,0.,1.2,0.,1.2,0.,1.2,,0.0,,0.0
1979-07-03 00:07:23.690 ,6,0,0.,1.2,0.,1.2,0.,1.2,,0.0,,0.0
1979-07-03 00:07:24.890 ,6,0,1.,1.2,1.,1.2,0.,1.2,,0.0,,0.0
1979-07-03 00:07:26.090 ,6,0,0.,1.2,0.,1.2,0.,1.2,,0.0,,0.0
1979-07-03 00:07:27.290 ,6,0,0.,1.2,0.,1.2,0.,1.2,,0.0,,0.0
1979-07-03 00:07:28.490 ,6,0,0.,1.2,0.,1.2,0.,1.2,,0.0,,0.0
1979-07-03 00:07:29.690 ,6,0,0.,1.2,0.,1.2,0.,1.2,,0.0,,0.0
1979-07-03 00:07:30.890 ,6,0,0.,1.2,0.,1.2,0.,1.2,,0.0,,0.0
1979-07-03 00:07:32.090 ,6,0,0.,1.2,0.,1.2,0.,1.2,,0.0,,0.0
1979-07-03 00:07:33.290 ,6,0,0.,1.2,0.,1.2,0.,1.2,,0.0,,0.0
1979-07-03 00:07:34.490 ,6,0,0.,1.2,0.,1.2,0.,1.2,,0.0,,0.0
1979-07-03 00:07:35.690 ,6,0,0.,1.2,0.,1.2,0.,1.2,,0.0,,0.0
1979-07-03 00:07:36.890 ,6,0,0.,1.2,0.,1.2,0.,1.2,,0.0,,0.0
1979-07-03 00:07:38.090 ,6,0,0.,1.2,0.,1.2,0.,1.2,,0.0,,0.0
1979-07-03 00:07:39.290 ,6,0,1.,1.2,0.,1.2,0.,1.2,,0.0,,0.0
1979-07-03 00:07:40.490 ,6,0,1.,1.2,1.,1.2,0.,1.2,,0.0,,0.0
1979-07-03 00:07:41.690 ,6,0,1.,1.2,1.,1.2,0.,1.2,,0.0,,0.0
1979-07-03 00:07:42.890 ,6,0,0.,1.2,0.,1.2,0.,1.2,,0.0,,0.0
1979-07-03 00:07:44.090 ,6,0,0.,1.2,0.,1.2,0.,1.2,,0.0,,0.0
1979-07-03 00:07:45.290 ,6,0,1.,1.2,0.,1.2,0.,1.2,,0.0,,0.0
1979-07-03 00:07:46.490 ,6,0,2.,1.2,1.,1.2,0.,1.2,,0.0,,0.0
1979-07-03 00:07:47.690 ,6,0,0.,1.2,0.,1.2,0.,1.2,,0.0,,0.0
1979-07-03 00:07:48.890 ,6,0,0.,1.2,0.,1.2,0.,1.2,,0.0,,0.0
1979-07-03 00:07:50.090 ,6,0,0.,1.2,0.,1.2,0.,1.2,,0.0,,0.0
1979-07-03 00:07:51.290 ,6,0,0.,1.2,0.,1.2,0.,1.2,,0.0,,0.0
1979-07-03 00:07:52.490 ,6,0,1.,1.2,0.,1.2,0.,1.2,,0.0,,0.0
1979-07-03 00:07:53.690 ,6,0,0.,1.2,0.,1.2,0.,1.2,,0.0,,0.0
1979-07-03 00:07:54.890 ,6,0,0.,1.2,0.,1.2,0.,1.2,,0.0,,0.0
1979-07-03 00:07:56.090 ,6,0,0.,1.2,0.,1.2,0.,1.2,,0.0,,0.0
1979-07-03 00:07:57.290 ,6,0,0.,1.2,0.,1.2,0.,1.2,,0.0,,0.0
1979-07-03 00:07:58.490 ,6,0,0.,1.2,0.,1.2,0.,1.2,,0.0,,0.0
1979-07-03 00:07:59.690 ,5,0,1.,1.2,1.,1.2,1.,1.2,,0.0,,0.0
1979-07-03 00:08:00.890 ,5,0,0.,1.2,0.,1.2,0.,1.2,,0.0,,0.0
1979-07-03 00:08:02.090 ,5,0,1.,1.2,0.,1.2,0.,1.2,,0.0,,0.0
1979-07-03 00:08:03.290 ,5,0,0.,1.2,0.,1.2,0.,1.2,,0.0,,0.0
1979-07-03 00:08:04.490 ,5,0,1.,1.2,1.,1.2,0.,1.2,,0.0,,0.0
1979-07-03 00:08:05.690 ,5,0,1.,1.2,1.,1.2,0.,1.2,,0.0,,0.0
1979-07-03 00:08:06.890 ,5,0,0.,1.2,0.,1.2,0.,1.2,,0.0,,0.0
1979-07-03 00:08:08.090 ,5,0,0.,1.2,0.,1.2,0.,1.2,,0.0,,0.0
1979-07-03 00:08:09.290 ,5,0,0.,1.2,0.,1.2,0.,1.2,,0.0,,0.0
1979-07-03 00:08:10.490 ,5,0,0.,1.2,0.,1.2,0.,1.2,,0.0,,0.0
1979-07-03 00:08:11.690 ,5,0,0.,1.2,0.,1.2,0.,1.2,,0.0,,0.0
1979-07-03 00:08:12.890 ,5,0,0.,1.2,0.,1.2,0.,1.2,,0.0,,0.0